Погода в Ольхах

Россия / Тамбовская область     53°17′19″N   41°12′26″E
темп.,
°C
ветер,
м/с
пор.,
м/с
влажн.,
%
обл.,
%
осадки,
мм/ч
давл.,
гПа
погр.,
м
20 июня, вс
вс2000:00+17юз22860 0.0 102511
03:00+16юз00850 0.0 102511
06:00+18юв11800 0.0 102459
09:00+22юв22680 0.0 1024462
12:00+25юв23520 0.0 1024955
15:00+27ююв13440 0.0 10221370
18:00+26ю236511 0.0 1021142
21:00+21ююв2274100 0.0 102211
21 июня, пн
пн2100:00+19вюв1175100 0.0 102211
03:00+18в2284100 0.0 102216
06:00+19вюв2586100 0.0 1022123
09:00+24юв3469100 0.0 1022473
12:00+27ююв2352100 0.0 10221030
15:00+29юв2347100 0.0 10211212
18:00+27вюв2367100 0.0 102069
21:00+22юв2376100 0.0 102220
22 июня, вт
вт2200:00+20юв2280100 0.0 102114
03:00+18вюв228390 0.0 102215
06:00+20вюв248324 0.0 1022104
09:00+25юв34685 0.0 1022421
12:00+29вюв22485 0.0 10221146
15:00+30в12400 0.0 10211677
18:00+29всв125815 0.0 1020316
21:00+23юв227036 0.0 102118
23 июня, ср
ср2300:00+21всв126944 0.0 102211
03:00+19всв227533 0.0 102215
06:00+21всв34825 0.0 102296
09:00+26в34664 0.0 1022403
12:00+30всв23500 0.0 10221471
15:00+31св23430 0.0 10211912
18:00+29св35650 0.0 1021174
21:00+24в22700 0.0 102214
24 июня, чт
чт2400:00+22в22745 0.0 102211
03:00+20в22795 0.0 102211
06:00+22всв34795 0.0 102279
09:00+27в23645 0.0 1022429
12:00+30всв235016 0.0 10211478
15:00+31св23449 0.0 10202203
18:00+30всв23586 0.0 102081
21:00+22св227767 0.0 102018